Regional Weather Roundup
Issued by NWS

Home | Current Version | Previous Version | Text Only | Print | Product List | Glossary Off
Versions: 1 2 3 4 5 6 7 8 9 10 11 12 13 14 15 16 17 18 19 20 21 22 23 24 25 26 27 28 29 30 31 32 33 34 35 36 37 38 39 40 41 42 43 44 45 46 47 48 49 50

111
ASUS44 KJAN 220210
RWRMS

MISSISSIPPI HOURLY WEATHER ROUNDUP
NATIONAL WEATHER SERVICE JACKSON MS
800 PM CST SUN DEC 21 2014

NOTE: "FAIR: INDICATES FEW OR NO CLOUDS BELOW 12,000 FEET WITH NO
SIGNIFICANT WEATHER AND/OR OBSTRUCTIONS TO VISIBILITY.

MSZ001>002-007>008-010>013-018>021-025>028-034>036-220300-
NORTHWEST MISSISSIPPI

CITY           SKY/WX    TMP DP  RH WIND       PRES   REMARKS
CLARKSDALE     FAIR      46  39  76 E7        29.98F
CLEVELAND      FAIR      45  41  85 E5        29.95F
GREENWOOD      CLEAR     49  44  83 E8        29.99S
GREENVILLE     CLEAR     47  41  80 E6        29.94F
GRENADA        FAIR      45  41  87 CALM      30.01S
OLIVE BRANCH   PTCLDY    43  37  81 SE7       29.99F
OXFORD         FAIR      45  39  81 SE7       30.01F
TUNICA         CLEAR     45  36  70 E7        29.98F
$$

MSZ003>006-009-014>017-022>024-029>033-037>039-220300-
NORTHEAST MISSISSIPPI

CITY           SKY/WX    TMP DP  RH WIND       PRES   REMARKS
COLUMBUS AFB   MOCLDY    41  41 100 SE7       30.04S
CORINTH        FAIR      43  39  87 SE5       30.01F
GOLDN TRIANGLE CLOUDY    48  45  87 SE10      30.04
STARKVILLE     CLOUDY    46  45  93 SE9       30.04S FOG
TUPELO         CLOUDY    45  40  82 CALM      30.02F
$$

MSZ040-058-220300-
CENTRAL MISSISSIPPI

CITY           SKY/WX    TMP DP  RH WIND       PRES   REMARKS
JACKSON INTL   CLOUDY    49  47  93 SE10      30.00F
JACKSON HAWKNS CLOUDY    49  46  90 SE13      30.00F
MERIDIAN KEY   CLOUDY    49  47  93 NE7       30.03F FOG
MERIDIAN NAS   FOG       48  46  93 NE3       30.05S VSB 1/2
RAYMOND        MOCLDY    48  45  87 SE15      29.99S HAZE
VICKSBURG      CLEAR     51  46  83 SE9       29.97S
$$

MSZ059>079-220300-
SOUTH MISSISSIPPI

CITY           SKY/WX    TMP DP  RH WIND       PRES   REMARKS
HATTIESBURG    CLOUDY    53  51  93 E5        30.02R FOG
MCCOMB         CLOUDY    54  49  83 NE6       29.99R
NATCHEZ        CLOUDY    55  48  76 SE6       29.97F
PINE BELT      CLOUDY    52  46  82 E3        30.02R
$$

MSZ080>082-220300-
COASTAL MISSISSIPPI

CITY           SKY/WX    TMP DP  RH WIND       PRES   REMARKS
BAY ST LOUIS   CLOUDY    54  50  87 NE3       29.99F
BILOXI         CLOUDY    55  55 100 E7        29.99F
PASCAGOULA     CLOUDY    56  54  93 E3        30.01F
GULFPORT       CLOUDY    56  53  90 NE7       29.99F
$$



USA.gov is the U.S. government's official web portal to all federal, state and local government web resources and services.